This is the latest recevied weather packets stored in our database for station/object KB0BS-13. If no packets are shown the sender has not sent any weather packets the latest 10 day(s).
| Time | Temp. | Humidity | Pressure | Rain* | Wind** | Luminosity | Snow |
|---|---|---|---|---|---|---|---|
| 1778025510 | 2.78° C | 86% | 1009.9 hPa | 0 mm | - | 30 W/m² | - |
| 1778025208 | 2.78° C | 85% | 1009.9 hPa | 0 mm | - | 37 W/m² | - |
| 1778024904 | 2.78° C | 85% | 1009.7 hPa | 0 mm | - | 42 W/m² | - |
| 1778024602 | 2.78° C | 84% | 1009.6 hPa | 0 mm | - | 49 W/m² | - |
| 1778024299 | 2.78° C | 86% | 1009.8 hPa | 0 mm | - | 38 W/m² | - |
| 1778023997 | 2.78° C | 83% | 1009.6 hPa | 0 mm | - | 43 W/m² | - |
| 1778023694 | 2.78° C | 85% | 1009.6 hPa | 0 mm | - | 64 W/m² | - |
| 1778023391 | 2.78° C | 84% | 1009.6 hPa | 0 mm | - | 80 W/m² | - |
| 1778023088 | 2.78° C | 85% | 1009.5 hPa | 0 mm | - | 74 W/m² | - |
| 1778022787 | 3.33° C | 82% | 1009.5 hPa | 0 mm | - | 68 W/m² | - |
| 1778022484 | 3.33° C | 83% | 1009.4 hPa | 0 mm | - | 137 W/m² | - |
| 1778022181 | 3.33° C | 83% | 1009.6 hPa | 0 mm | - | 95 W/m² | - |
| 1778021877 | 3.33° C | 83% | 1009.4 hPa | 0 mm | - | 94 W/m² | - |
| 1778021574 | 3.33° C | 83% | 1009.4 hPa | 0 mm | - | 95 W/m² | - |
| 1778021269 | 3.33° C | 83% | 1009.3 hPa | 0 mm | - | 88 W/m² | - |
| 1778020967 | 3.89° C | 83% | 1009.3 hPa | 0 mm | - | 106 W/m² | - |
| 1778020665 | 3.89° C | 83% | 1009.4 hPa | 0 mm | - | 101 W/m² | - |
| 1778020361 | 3.89° C | 82% | 1009.2 hPa | 0 mm | - | 145 W/m² | - |
| 1778020057 | 3.33° C | 84% | 1009.1 hPa | 0 mm | - | 152 W/m² | - |
| 1778019753 | 3.89° C | 84% | 1009.1 hPa | 0 mm | - | 146 W/m² | - |
| 1778019451 | 3.89° C | 84% | 1009 hPa | 0 mm | - | 159 W/m² | - |
| 1778019147 | 3.89° C | 87% | 1009.1 hPa | 0 mm | - | 274 W/m² | - |
| 1778018844 | 3.33° C | 89% | 1008.9 hPa | 0 mm | - | 219 W/m² | - |
| 1778018542 | 3.33° C | 90% | 1009 hPa | 0 mm | - | 203 W/m² | - |
| 1778018240 | 3.33° C | 92% | 1008.9 hPa | 0 mm | - | 173 W/m² | - |
* Rain latest hour (hover to see other rain measurements)
** Current wind speed in m/s (hover to see current wind gust speed)